QPF
0.00 0.00 0.00 0.00 0.00 0.01 0.01 0.00 0.01 0.01 0.01 0.01 0.04 0.10 0.11 0.06 0.04 0.05 0.03 0.01 0.01 0.00 0.00 0.00 0.00 0.01 0.01 0.01 0.01 0.02 0.03 0.04 0.05 0.03 0.02 0.01 0.02 0.03 0.04 0.02 0.02 0.02 0.02 0.01
0.00 0.00 0.00 0.00 0.00 0.00 0.00 0.01 0.01 0.01 0.01 0.02 0.03 0.07 0.07 0.04 0.04 0.03 0.03 0.01 0.01 0.01 0.00 0.00 0.00 0.00 0.00 0.00 0.00 0.00 0.01 0.02 0.03 0.04 0.04 0.02 0.02 0.03 0.02 0.02 0.04 0.03 0.03 0.03
0.00 0.00 0.00 0.00 0.00 0.00 0.00 0.00 0.01 0.01 0.01 0.02 0.01 0.03 0.03 0.03 0.03 0.02 0.01 0.01 0.01 0.01 0.01 0.01 0.00 0.00 0.00 0.00 0.00 0.00 0.00 0.01 0.01 0.02 0.02 0.02 0.03 0.03 0.03 0.03 0.03 0.03 0.03 0.04
0.00 0.00 0.00 0.00 0.00 0.00 0.00 0.01 0.01 0.01 0.01 0.01 0.01 0.02 0.02 0.06 0.05 0.04 0.03 0.01 0.01 0.01 0.01 0.01 0.01 0.01 0.01 0.01 0.01 0.01 0.00 0.00 0.01 0.01 0.01 0.02 0.02 0.02 0.03 0.03 0.03 0.03 0.03 0.04
0.00 0.00 0.00 0.00 0.00 0.00 0.00 0.00 0.01 0.01 0.01 0.01 0.01 0.01 0.01 0.04 0.04 0.03 0.02 0.02 0.02 0.03 0.05 0.04 0.02 0.02 0.02 0.02 0.02 0.01 0.01 0.00 0.01 0.01 0.01 0.01 0.01 0.02 0.03 0.02 0.02 0.03 0.03 0.04
0.00 0.00 0.00 0.00 0.00 0.00 0.00 0.00 0.01 0.01 0.02 0.01 0.01 0.01 0.01 0.03 0.01 0.04 0.05 0.03 0.03 0.03 0.05 0.06 0.05 0.04 0.03 0.03 0.03 0.02 0.02 0.02 0.02 0.01 0.01 0.02 0.03 0.03 0.02 0.03 0.03 0.04 0.05 0.05
0.00 0.00 0.00 0.00 0.00 0.00 0.00 0.00 0.01 0.01 0.01 0.02 0.01 0.01 0.02 0.10 0.04 0.05 0.08 0.05 0.03 0.03 0.04 0.08 0.12 0.09 0.06 0.04 0.04 0.05 0.04 0.05 0.05 0.05 0.05 0.05 0.05 0.04 0.03 0.03 0.04 0.04 0.04 0.03
0.00 0.00 0.00 0.00 0.00 0.00 0.00 0.00 0.00 0.01 0.02 0.02 0.01 0.02 0.03 0.08 0.04 0.04 0.10 0.11 0.06 0.05 0.09 0.13 0.12 0.09 0.11 0.06 0.05 0.07 0.09 0.07 0.05 0.05 0.06 0.05 0.05 0.03 0.03 0.02 0.02 0.02 0.03 0.03
0.00 0.00 0.00 0.00 0.00 0.00 0.00 0.00 0.00 0.00 0.00 0.02 0.02 0.03 0.02 0.03 0.04 0.07 0.10 0.11 0.07 0.09 0.10 0.08 0.05 0.05 0.07 0.06 0.03 0.04 0.06 0.06 0.06 0.06 0.05 0.05 0.04 0.04 0.04 0.03 0.03 0.02 0.03 0.03
0.00 0.00 0.00 0.00 0.00 0.00 0.00 0.00 0.00 0.00 0.00 0.01 0.02 0.02 0.02 0.02 0.02 0.03 0.07 0.08 0.07 0.06 0.05 0.04 0.05 0.05 0.05 0.07 0.05 0.04 0.06 0.09 0.10 0.08 0.06 0.05 0.05 0.05 0.04 0.03 0.03 0.03 0.02 0.02
0.00 0.00 0.00 0.00 0.00 0.00 0.00 0.00 0.00 0.00 0.00 0.00 0.01 0.02 0.01 0.02 0.01 0.02 0.04 0.08 0.06 0.03 0.04 0.05 0.07 0.05 0.04 0.03 0.04 0.04 0.06 0.08 0.09 0.08 0.07 0.06 0.07 0.07 0.06 0.04 0.02 0.02 0.02 0.01
0.00 0.00 0.00 0.00 0.00 0.00 0.00 0.00 0.00 0.00 0.00 0.00 0.00 0.01 0.01 0.01 0.01 0.02 0.06 0.08 0.04 0.05 0.06 0.10 0.07 0.05 0.05 0.04 0.03 0.02 0.03 0.04 0.06 0.08 0.07 0.05 0.05 0.06 0.06 0.04 0.03 0.02 0.02 0.02
0.00 0.00 0.00 0.00 0.00 0.00 0.00 0.00 0.00 0.00 0.00 0.00 0.00 0.01 0.01 0.02 0.03 0.05 0.11 0.09 0.06 0.09 0.10 0.09 0.07 0.06 0.05 0.04 0.04 0.03 0.03 0.02 0.02 0.04 0.06 0.06 0.06 0.06 0.05 0.04 0.02 0.03 0.03 0.03
0.00 0.00 0.00 0.00 0.00 0.00 0.00 0.00 0.00 0.00 0.00 0.00 0.00 0.01 0.02 0.02 0.04 0.06 0.05 0.06 0.07 0.08 0.08 0.11 0.10 0.08 0.04 0.03 0.02 0.02 0.04 0.03 0.01 0.01 0.02 0.05 0.06 0.06 0.06 0.05 0.04 0.04 0.04 0.04
0.00 0.00 0.00 0.00 0.00 0.00 0.00 0.00 0.00 0.00 0.00 0.00 0.00 0.01 0.01 0.02 0.02 0.04 0.05 0.05 0.05 0.05 0.06 0.08 0.06 0.05 0.04 0.03 0.03 0.02 0.02 0.03 0.02 0.01 0.01 0.01 0.03 0.04 0.04 0.04 0.04 0.04 0.04 0.03
0.00 0.00 0.00 0.00 0.00 0.00 0.00 0.00 0.00 0.00 0.00 0.00 0.00 0.01 0.02 0.03 0.05 0.04 0.04 0.05 0.07 0.05 0.06 0.05 0.03 0.03 0.03 0.03 0.03 0.05 0.04 0.02 0.01 0.02 0.01 0.01 0.01 0.02 0.02 0.03 0.03 0.02 0.02 0.02
0.00 0.00 0.00 0.00 0.00 0.00 0.00 0.01 0.00 0.00 0.00 0.00 0.01 0.01 0.01 0.03 0.04 0.03 0.03 0.03 0.04 0.08 0.09 0.04 0.03 0.04 0.04 0.04 0.04 0.06 0.07 0.03 0.02 0.01 0.01 0.01 0.01 0.01 0.02 0.02 0.02 0.02 0.01 0.02
0.00 0.00 0.00 0.00 0.00 0.00 0.00 0.00 0.00 0.00 0.00 0.00 0.01 0.01 0.01 0.02 0.04 0.04 0.05 0.05 0.07 0.12 0.12 0.09 0.07 0.08 0.09 0.07 0.06 0.06 0.11 0.08 0.05 0.03 0.03 0.03 0.03 0.02 0.02 0.02 0.02 0.02 0.01 0.01
0.00 0.00 0.00 0.00 0.00 0.00 0.00 0.00 0.00 0.00 0.00 0.00 0.01 0.01 0.01 0.02 0.03 0.06 0.07 0.09 0.09 0.07 0.09 0.08 0.09 0.09 0.10 0.09 0.09 0.10 0.12 0.12 0.09 0.06 0.05 0.05 0.04 0.04 0.03 0.02 0.02 0.02 0.02 0.02
0.00 0.00 0.00 0.00 0.01 0.01 0.01 0.00 0.00 0.00 0.00 0.00 0.01 0.02 0.01 0.01 0.02 0.05 0.05 0.07 0.12 0.11 0.10 0.08 0.11 0.16 0.15 0.13 0.12 0.13 0.16 0.16 0.14 0.13 0.10 0.11 0.10 0.08 0.04 0.03 0.03 0.03 0.03 0.04
0.00 0.01 0.00 0.00 0.01 0.01 0.01 0.00 0.00 0.01 0.01 0.01 0.05 0.06 0.03 0.03 0.03 0.06 0.04 0.05 0.09 0.08 0.07 0.09 0.11 0.14 0.17 0.17 0.14 0.14 0.19 0.24 0.32 0.29 0.22 0.14 0.16 0.12 0.05 0.04 0.05 0.05 0.06 0.06
0.01 0.03 0.01 0.00 0.01 0.02 0.01 0.00 0.01 0.02 0.03 0.03 0.04 0.05 0.04 0.04 0.04 0.06 0.04 0.04 0.06 0.10 0.12 0.14 0.17 0.22 0.25 0.22 0.20 0.21 0.24 0.25 0.29 0.25 0.17 0.13 0.11 0.08 0.05 0.04 0.04 0.05 0.05 0.05
0.03 0.03 0.01 0.01 0.02 0.02 0.01 0.01 0.02 0.05 0.04 0.03 0.03 0.03 0.03 0.03 0.03 0.05 0.07 0.06 0.08 0.13 0.15 0.13 0.16 0.27 0.24 0.17 0.17 0.23 0.24 0.19 0.15 0.12 0.09 0.08 0.07 0.06 0.05 0.03 0.03 0.04 0.05 0.07
0.02 0.02 0.01 0.02 0.02 0.02 0.02 0.02 0.02 0.02 0.03 0.04 0.03 0.03 0.02 0.03 0.03 0.04 0.05 0.05 0.07 0.11 0.11 0.15 0.11 0.10 0.10 0.08 0.09 0.11 0.10 0.09 0.07 0.05 0.04 0.04 0.04 0.03 0.03 0.02 0.02 0.02 0.03 0.06
0.01 0.01 0.01 0.02 0.03 0.02 0.01 0.01 0.01 0.01 0.01 0.01 0.02 0.02 0.02 0.02 0.03 0.05 0.04 0.05 0.06 0.06 0.09 0.11 0.09 0.06 0.05 0.07 0.08 0.08 0.06 0.04 0.04 0.03 0.02 0.02 0.02 0.02 0.02 0.02 0.02 0.02 0.02 0.02
0.00 0.01 0.01 0.02 0.03 0.03 0.02 0.01 0.01 0.00 0.01 0.01 0.00 0.01 0.02 0.02 0.03 0.03 0.09 0.08 0.06 0.06 0.08 0.08 0.05 0.04 0.05 0.06 0.06 0.05 0.03 0.02 0.02 0.02 0.02 0.02 0.02 0.02 0.02 0.02 0.02 0.02 0.02 0.02
MSLP
1010.39 1011.53 1012.57 1013.49 1014.30 1015.06 1015.80 1016.55 1017.33 1018.11 1018.84 1019.47 1019.94 1020.21 1020.27 1020.13 1019.84 1019.45 1019.03 1018.61 1018.21 1017.85 1017.50 1017.16 1016.81 1016.44 1016.08 1015.75 1015.49 1015.33 1015.31 1015.41 1015.62 1015.90 1016.19 1016.44 1016.62 1016.70 1016.69 1016.60 1016.47 1016.36 1016.28 1016.28
1011.43 1012.38 1013.20 1013.89 1014.50 1015.11 1015.76 1016.50 1017.32 1018.20 1019.05 1019.79 1020.36 1020.70 1020.80 1020.66 1020.35 1019.94 1019.48 1019.04 1018.64 1018.28 1017.94 1017.59 1017.21 1016.81 1016.38 1015.96 1015.61 1015.37 1015.26 1015.31 1015.48 1015.75 1016.05 1016.32 1016.51 1016.60 1016.58 1016.48 1016.34 1016.20 1016.10 1016.08
1012.24 1012.98 1013.57 1014.04 1014.48 1014.97 1015.59 1016.37 1017.29 1018.30 1019.30 1020.19 1020.86 1021.26 1021.37 1021.22 1020.87 1020.40 1019.90 1019.42 1019.01 1018.65 1018.33 1017.99 1017.62 1017.20 1016.74 1016.26 1015.83 1015.49 1015.30 1015.26 1015.37 1015.59 1015.85 1016.10 1016.29 1016.37 1016.34 1016.23 1016.07 1015.91 1015.81 1015.79
1012.85 1013.37 1013.73 1014.01 1014.32 1014.76 1015.40 1016.28 1017.35 1018.53 1019.69 1020.71 1021.48 1021.92 1022.02 1021.81 1021.38 1020.83 1020.26 1019.73 1019.29 1018.94 1018.63 1018.34 1018.00 1017.59 1017.12 1016.61 1016.12 1015.70 1015.41 1015.27 1015.29 1015.42 1015.62 1015.82 1015.96 1016.02 1015.97 1015.85 1015.68 1015.52 1015.42 1015.40
1013.33 1013.63 1013.79 1013.92 1014.16 1014.60 1015.32 1016.33 1017.57 1018.93 1020.25 1021.39 1022.22 1022.67 1022.72 1022.43 1021.89 1021.22 1020.55 1019.95 1019.48 1019.13 1018.85 1018.60 1018.32 1017.95 1017.49 1016.97 1016.44 1015.95 1015.56 1015.32 1015.23 1015.26 1015.36 1015.49 1015.58 1015.60 1015.53 1015.39 1015.21 1015.05 1014.95 1014.93
1013.78 1013.87 1013.87 1013.91 1014.12 1014.60 1015.43 1016.59 1017.99 1019.51 1020.96 1022.18 1023.03 1023.45 1023.42 1023.01 1022.34 1021.55 1020.77 1020.10 1019.59 1019.23 1018.99 1018.80 1018.57 1018.26 1017.84 1017.33 1016.77 1016.23 1015.76 1015.41 1015.20 1015.12 1015.12 1015.16 1015.19 1015.16 1015.06 1014.90 1014.71 1014.54 1014.43 1014.41
1014.25 1014.18 1014.07 1014.06 1014.28 1014.83 1015.76 1017.05 1018.59 1020.22 1021.74 1022.99 1023.82 1024.17 1024.04 1023.51 1022.71 1021.79 1020.92 1020.18 1019.63 1019.28 1019.08 1018.94 1018.78 1018.53 1018.15 1017.66 1017.10 1016.51 1015.97 1015.53 1015.21 1015.02 1014.92 1014.88 1014.83 1014.75 1014.61 1014.43 1014.23 1014.04 1013.91 1013.87
1014.79 1014.61 1014.44 1014.41 1014.66 1015.28 1016.30 1017.67 1019.29 1020.96 1022.49 1023.71 1024.48 1024.74 1024.50 1023.85 1022.95 1021.94 1021.00 1020.22 1019.66 1019.32 1019.15 1019.07 1018.96 1018.77 1018.44 1017.97 1017.40 1016.79 1016.19 1015.67 1015.27 1014.98 1014.79 1014.65 1014.54 1014.40 1014.23 1014.01 1013.79 1013.57 1013.41 1013.33
1015.35 1015.14 1014.96 1014.95 1015.24 1015.90 1016.97 1018.37 1019.98 1021.61 1023.09 1024.22 1024.89 1025.06 1024.73 1024.00 1023.04 1022.00 1021.03 1020.25 1019.70 1019.39 1019.26 1019.21 1019.15 1018.99 1018.70 1018.25 1017.69 1017.05 1016.42 1015.84 1015.37 1015.00 1014.73 1014.52 1014.34 1014.15 1013.93 1013.68 1013.41 1013.16 1012.96 1012.83
1015.88 1015.69 1015.55 1015.59 1015.92 1016.61 1017.67 1019.03 1020.55 1022.08 1023.43 1024.44 1025.00 1025.07 1024.68 1023.93 1022.97 1021.95 1021.02 1020.29 1019.78 1019.51 1019.41 1019.39 1019.35 1019.22 1018.94 1018.50 1017.94 1017.30 1016.64 1016.03 1015.50 1015.08 1014.74 1014.47 1014.22 1013.98 1013.71 1013.42 1013.11 1012.81 1012.55 1012.36
1016.30 1016.20 1016.15 1016.25 1016.62 1017.30 1018.30 1019.54 1020.92 1022.28 1023.46 1024.31 1024.75 1024.76 1024.36 1023.64 1022.75 1021.83 1021.00 1020.35 1019.92 1019.70 1019.63 1019.61 1019.58 1019.44 1019.16 1018.72 1018.16 1017.51 1016.85 1016.22 1015.66 1015.20 1014.81 1014.49 1014.19 1013.89 1013.56 1013.22 1012.86 1012.51 1012.19 1011.94
1016.57 1016.61 1016.67 1016.86 1017.25 1017.89 1018.78 1019.87 1021.06 1022.20 1023.17 1023.87 1024.21 1024.17 1023.81 1023.18 1022.42 1021.65 1020.97 1020.44 1020.11 1019.93 1019.88 1019.86 1019.80 1019.64 1019.34 1018.89 1018.32 1017.69 1017.03 1016.40 1015.83 1015.33 1014.91 1014.54 1014.19 1013.83 1013.45 1013.04 1012.63 1012.23 1011.87 1011.56
1016.72 1016.91 1017.10 1017.36 1017.77 1018.35 1019.11 1020.01 1020.96 1021.88 1022.64 1023.18 1023.43 1023.40 1023.10 1022.61 1022.03 1021.45 1020.94 1020.55 1020.31 1020.19 1020.14 1020.10 1020.00 1019.79 1019.46 1018.99 1018.43 1017.80 1017.16 1016.54 1015.97 1015.46 1015.01 1014.59 1014.19 1013.77 1013.33 1012.88 1012.42 1011.97 1011.57 1011.23
1016.82 1017.16 1017.46 1017.78 1018.18 1018.68 1019.29 1019.98 1020.71 1021.39 1021.96 1022.35 1022.55 1022.53 1022.34 1022.01 1021.62 1021.23 1020.90 1020.66 1020.51 1020.42 1020.37 1020.28 1020.13 1019.87 1019.50 1019.02 1018.45 1017.85 1017.23 1016.63 1016.08 1015.56 1015.09 1014.63 1014.17 1013.70 1013.20 1012.70 1012.20 1011.73 1011.31 1010.96
1016.98 1017.43 1017.82 1018.17 1018.53 1018.93 1019.38 1019.87 1020.37 1020.83 1021.22 1021.50 1021.66 1021.68 1021.59 1021.43 1021.23 1021.03 1020.87 1020.75 1020.67 1020.60 1020.52 1020.38 1020.17 1019.85 1019.45 1018.95 1018.40 1017.82 1017.24 1016.67 1016.13 1015.62 1015.13 1014.63 1014.13 1013.61 1013.07 1012.53 1012.01 1011.52 1011.11 1010.76
1017.28 1017.80 1018.21 1018.55 1018.85 1019.14 1019.43 1019.72 1020.02 1020.29 1020.54 1020.73 1020.85 1020.92 1020.94 1020.92 1020.89 1020.85 1020.82 1020.79 1020.76 1020.69 1020.57 1020.38 1020.10 1019.75 1019.31 1018.82 1018.28 1017.74 1017.20 1016.67 1016.16 1015.65 1015.14 1014.62 1014.08 1013.52 1012.95 1012.39 1011.87 1011.40 1011.00 1010.68
1017.78 1018.29 1018.67 1018.96 1019.17 1019.33 1019.46 1019.58 1019.70 1019.83 1019.95 1020.07 1020.19 1020.30 1020.40 1020.50 1020.60 1020.68 1020.75 1020.78 1020.76 1020.68 1020.52 1020.28 1019.95 1019.56 1019.11 1018.62 1018.12 1017.63 1017.13 1016.65 1016.17 1015.67 1015.16 1014.63 1014.06 1013.48 1012.90 1012.34 1011.84 1011.40 1011.04 1010.76
1018.41 1018.86 1019.17 1019.35 1019.45 1019.48 1019.46 1019.44 1019.42 1019.43 1019.46 1019.54 1019.65 1019.80 1019.97 1020.16 1020.34 1020.51 1020.63 1020.69 1020.67 1020.57 1020.37 1020.09 1019.73 1019.32 1018.88 1018.42 1017.96 1017.52 1017.08 1016.64 1016.19 1015.72 1015.22 1014.68 1014.12 1013.54 1012.97 1012.44 1011.97 1011.58 1011.27 1011.04
1019.06 1019.40 1019.58 1019.65 1019.62 1019.52 1019.39 1019.25 1019.13 1019.05 1019.04 1019.09 1019.21 1019.38 1019.60 1019.85 1020.09 1020.30 1020.45 1020.52 1020.49 1020.37 1020.14 1019.84 1019.47 1019.07 1018.65 1018.24 1017.83 1017.45 1017.07 1016.68 1016.27 1015.83 1015.35 1014.83 1014.29 1013.74 1013.21 1012.73 1012.31 1011.98 1011.73 1011.55
1019.55 1019.75 1019.80 1019.74 1019.59 1019.38 1019.15 1018.93 1018.75 1018.64 1018.60 1018.65 1018.78 1018.98 1019.24 1019.52 1019.79 1020.02 1020.19 1020.26 1020.23 1020.10 1019.87 1019.57 1019.22 1018.85 1018.47 1018.11 1017.76 1017.44 1017.12 1016.79 1016.42 1016.02 1015.58 1015.10 1014.60 1014.10 1013.62 1013.21 1012.86 1012.60 1012.40 1012.26
1019.70 1019.76 1019.69 1019.51 1019.26 1018.97 1018.69 1018.43 1018.23 1018.11 1018.08 1018.15 1018.30 1018.54 1018.82 1019.13 1019.42 1019.67 1019.84 1019.92 1019.90 1019.78 1019.58 1019.30 1018.99 1018.66 1018.35 1018.04 1017.77 1017.50 1017.24 1016.96 1016.65 1016.29 1015.90 1015.47 1015.03 1014.60 1014.20 1013.86 1013.59 1013.39 1013.25 1013.15
1019.40 1019.34 1019.16 1018.90 1018.59 1018.27 1017.96 1017.71 1017.53 1017.44 1017.45 1017.56 1017.75 1018.02 1018.33 1018.66 1018.97 1019.23 1019.42 1019.52 1019.53 1019.44 1019.27 1019.05 1018.80 1018.53 1018.28 1018.04 1017.82 1017.62 1017.41 1017.18 1016.92 1016.62 1016.28 1015.92 1015.55 1015.20 1014.89 1014.63 1014.43 1014.30 1014.20 1014.12
1018.62 1018.48 1018.24 1017.93 1017.60 1017.28 1017.01 1016.80 1016.68 1016.65 1016.72 1016.88 1017.12 1017.43 1017.76 1018.11 1018.44 1018.73 1018.94 1019.07 1019.12 1019.08 1018.97 1018.82 1018.63 1018.44 1018.25 1018.08 1017.91 1017.76 1017.59 1017.41 1017.20 1016.96 1016.69 1016.40 1016.11 1015.84 1015.60 1015.42 1015.29 1015.21 1015.15 1015.08
1017.46 1017.27 1016.99 1016.68 1016.38 1016.11 1015.91 1015.79 1015.75 1015.81 1015.96 1016.18 1016.47 1016.81 1017.18 1017.55 1017.89 1018.20 1018.44 1018.61 1018.70 1018.72 1018.69 1018.60 1018.49 1018.36 1018.23 1018.11 1018.00 1017.88 1017.76 1017.62 1017.46 1017.27 1017.06 1016.84 1016.62 1016.43 1016.27 1016.16 1016.08 1016.03 1015.99 1015.93
1016.06 1015.85 1015.58 1015.31 1015.07 1014.89 1014.79 1014.78 1014.85 1015.01 1015.24 1015.53 1015.87 1016.24 1016.63 1017.01 1017.37 1017.69 1017.96 1018.16 1018.31 1018.39 1018.41 1018.39 1018.34 1018.27 1018.19 1018.11 1018.03 1017.95 1017.86 1017.76 1017.64 1017.50 1017.35 1017.19 1017.04 1016.92 1016.82 1016.75 1016.70 1016.67 1016.64 1016.57
1014.63 1014.41 1014.18 1013.98 1013.83 1013.77 1013.79 1013.90 1014.09 1014.35 1014.66 1015.01 1015.39 1015.79 1016.18 1016.57 1016.93 1017.25 1017.53 1017.76 1017.94 1018.06 1018.14 1018.17 1018.17 1018.14 1018.10 1018.05 1017.99 1017.93 1017.87 1017.79 1017.71 1017.61 1017.52 1017.42 1017.32 1017.24 1017.18 1017.14 1017.11 1017.08 1017.04 1016.96
Thickness
5846 5827 5814 5823 5831 5830 5827 5817 5812 5822 5837 5826 5816 5813 5815 5821 5821 5817 5814 5811 5809 5809 5810 5810 5808 5805 5800 5797 5793 5791 5787 5785 5783 5779 5776 5773 5772 5772 5773 5773 5773 5772 5771 5770
5823 5816 5836 5847 5847 5839 5828 5815 5814 5824 5836 5826 5814 5810 5817 5821 5821 5821 5819 5815 5811 5807 5806 5806 5805 5803 5800 5796 5793 5791 5788 5786 5783 5781 5778 5776 5773 5772 5772 5773 5772 5772 5771 5769
5814 5830 5850 5844 5836 5828 5824 5817 5817 5816 5825 5824 5812 5798 5806 5817 5821 5820 5820 5819 5816 5811 5807 5805 5804 5801 5799 5796 5794 5793 5789 5786 5784 5781 5778 5776 5773 5771 5769 5769 5769 5771 5770 5769
5824 5842 5844 5836 5831 5830 5814 5834 5832 5823 5806 5793 5802 5772 5795 5807 5808 5812 5813 5813 5812 5812 5809 5806 5804 5801 5799 5797 5796 5793 5790 5787 5784 5782 5778 5773 5769 5766 5767 5768 5769 5770 5770 5769
5822 5837 5834 5828 5834 5838 5830 5843 5835 5826 5806 5790 5793 5776 5784 5801 5797 5803 5809 5812 5813 5811 5809 5807 5805 5803 5801 5798 5795 5792 5789 5786 5784 5782 5779 5774 5771 5769 5769 5768 5768 5768 5768 5768
5832 5846 5844 5840 5847 5847 5843 5833 5822 5808 5790 5769 5783 5775 5773 5791 5800 5804 5808 5812 5813 5811 5811 5808 5805 5802 5799 5797 5794 5791 5787 5785 5784 5781 5778 5775 5771 5769 5766 5765 5765 5765 5765 5765
5813 5829 5843 5848 5832 5835 5828 5795 5768 5763 5753 5758 5782 5774 5775 5802 5813 5813 5811 5811 5813 5812 5809 5806 5801 5797 5796 5794 5792 5789 5786 5782 5782 5780 5777 5775 5773 5770 5767 5766 5764 5763 5762 5763
5786 5791 5826 5838 5829 5818 5816 5795 5762 5747 5744 5754 5773 5766 5784 5810 5816 5817 5816 5814 5812 5809 5808 5805 5801 5798 5795 5793 5791 5788 5784 5781 5780 5778 5776 5775 5773 5770 5768 5766 5765 5764 5763 5763
5784 5790 5831 5842 5844 5831 5812 5798 5796 5768 5760 5749 5755 5770 5788 5806 5807 5808 5809 5808 5806 5806 5806 5804 5801 5799 5795 5792 5789 5787 5783 5780 5778 5777 5774 5772 5771 5769 5767 5766 5764 5763 5763 5763
5802 5791 5813 5833 5837 5832 5823 5810 5782 5763 5744 5736 5747 5755 5762 5782 5789 5795 5798 5800 5802 5803 5801 5799 5798 5796 5794 5792 5789 5787 5783 5779 5777 5775 5772 5771 5768 5767 5765 5763 5762 5761 5761 5761
5807 5786 5794 5807 5805 5803 5808 5801 5781 5760 5754 5735 5728 5746 5787 5787 5791 5790 5791 5795 5797 5797 5797 5796 5793 5792 5791 5790 5787 5784 5780 5777 5774 5772 5770 5767 5765 5764 5762 5760 5760 5759 5759 5758
5802 5780 5770 5789 5812 5823 5813 5801 5781 5758 5752 5744 5734 5748 5798 5795 5794 5792 5791 5792 5792 5793 5792 5791 5790 5787 5785 5784 5783 5780 5778 5775 5772 5770 5767 5764 5763 5760 5759 5758 5758 5757 5756 5755
5796 5771 5752 5760 5779 5798 5799 5800 5790 5771 5753 5740 5732 5749 5791 5791 5790 5790 5789 5789 5789 5788 5786 5785 5783 5781 5779 5779 5778 5777 5775 5773 5770 5767 5764 5761 5759 5757 5755 5754 5754 5753 5752 5751
5799 5766 5753 5747 5757 5776 5782 5789 5790 5772 5747 5741 5745 5753 5769 5776 5778 5780 5783 5784 5785 5783 5782 5780 5777 5777 5776 5775 5773 5772 5770 5769 5766 5763 5760 5756 5754 5753 5751 5751 5750 5748 5747 5746
5784 5763 5768 5770 5779 5783 5781 5783 5784 5774 5763 5750 5753 5755 5763 5771 5775 5777 5779 5780 5780 5777 5776 5775 5773 5771 5770 5769 5768 5767 5765 5763 5762 5758 5755 5752 5751 5749 5747 5745 5744 5744 5743 5743
5766 5759 5761 5762 5775 5776 5772 5777 5778 5774 5770 5762 5757 5754 5770 5773 5773 5771 5772 5773 5771 5771 5770 5769 5769 5767 5765 5764 5763 5762 5760 5758 5756 5753 5750 5748 5746 5743 5742 5741 5739 5738 5737 5737
5750 5747 5741 5738 5756 5760 5746 5763 5766 5762 5764 5759 5747 5753 5764 5762 5764 5764 5765 5765 5764 5763 5763 5762 5763 5762 5761 5760 5758 5756 5755 5753 5749 5746 5744 5742 5740 5738 5737 5736 5734 5732 5732 5731
5744 5736 5726 5726 5736 5722 5743 5770 5771 5763 5758 5760 5758 5759 5761 5761 5761 5761 5760 5757 5756 5756 5756 5756 5755 5755 5756 5755 5753 5753 5749 5746 5742 5739 5737 5736 5734 5732 5731 5729 5728 5727 5726 5725
5748 5735 5720 5711 5712 5721 5744 5761 5763 5752 5742 5754 5752 5754 5756 5757 5753 5749 5754 5754 5752 5751 5751 5750 5750 5748 5747 5747 5747 5745 5742 5739 5736 5733 5731 5730 5729 5726 5724 5723 5722 5721 5720 5719
5738 5731 5715 5706 5704 5702 5728 5757 5767 5752 5726 5746 5749 5747 5748 5747 5731 5734 5745 5746 5746 5745 5744 5743 5743 5742 5741 5740 5739 5736 5733 5731 5729 5728 5727 5725 5724 5721 5718 5718 5716 5715 5714 5712
5714 5710 5703 5698 5696 5708 5735 5752 5754 5720 5717 5738 5741 5742 5741 5736 5734 5737 5739 5738 5739 5739 5738 5738 5736 5734 5733 5733 5731 5728 5726 5725 5725 5723 5720 5719 5717 5714 5713 5712 5710 5708 5706 5705
5698 5694 5691 5689 5687 5697 5733 5737 5725 5719 5730 5733 5734 5735 5734 5732 5732 5732 5732 5730 5730 5730 5731 5730 5728 5727 5726 5725 5723 5720 5719 5719 5718 5716 5712 5711 5710 5708 5707 5704 5703 5701 5699 5696
5694 5695 5691 5691 5694 5711 5724 5726 5728 5728 5726 5727 5727 5728 5728 5725 5722 5722 5722 5721 5721 5721 5720 5720 5719 5717 5716 5715 5714 5711 5711 5711 5709 5706 5704 5703 5702 5699 5698 5696 5694 5693 5691 5689
5693 5698 5691 5689 5697 5706 5714 5719 5722 5724 5722 5724 5724 5722 5720 5716 5714 5713 5712 5711 5711 5711 5710 5710 5709 5707 5705 5705 5705 5703 5704 5702 5701 5699 5698 5696 5693 5691 5690 5688 5687 5685 5683 5681
5685 5686 5681 5680 5690 5696 5703 5708 5712 5714 5716 5717 5717 5717 5714 5711 5707 5704 5702 5701 5700 5700 5701 5701 5699 5697 5697 5697 5697 5697 5697 5696 5692 5691 5690 5688 5685 5683 5681 5680 5679 5678 5677 5676
5677 5676 5672 5672 5685 5684 5690 5701 5706 5706 5705 5707 5706 5705 5705 5703 5699 5697 5694 5693 5692 5691 5691 5690 5691 5690 5690 5690 5689 5689 5689 5688 5685 5683 5682 5681 5679 5676 5674 5672 5670 5670 5670 5670